User: anonymous   Login
Location: Cran-Gévrier
(45.9039°N, 6.1012°E)
Time: 05:46:27
(UTC+00:00)
Language:

Cosmos 2219 Rocket - Orbit

View from above orbital plane
View from above orbital plane
View from above satellite
View from above satellite

Ground track
Ground track

The orbit data is extracted from the following two-line orbital elements,

1 22220U 92076B   24114.63272687  .00000397  00000-0  22252-3 0  9990
2 22220  71.0004 191.2237 0010961  53.5389  51.3900 14.16645651624804
Epoch (UTC): 23 April 2024 15:11:07
Eccentricity: 0.0010961
inclination: 71.0004°
perigee height: 829 km
apogee height: 844 km
right ascension of ascending node: 191.2237°
argument of perigee: 53.5389°
revolutions per day: 14.16645651
mean anomaly at epoch: 51.3900°
orbit number at epoch: 62480

The dashed part of the orbit path shows where the satellite is in the earth's shadow,  

DLR